| time (UTC) | temp F | wind direction | speed MPH | gust MPH | rain 1hr in | rain 24hr in | rain mn in | humidity % | barometer mb |
| 20260905043145 | 54 | 224 | 3.0 | 6.0 | 0.00 | 0.01 | 0.01 | 81 | 1018.8 |
| 20260905041530 | 54 | 177 | 0.0 | 3.0 | 0.00 | 0.01 | 0.01 | 80 | 1019.0 |
| 20260905040031 | 53 | 174 | 0.0 | 3.0 | 0.00 | 0.01 | 0.01 | 79 | 1018.9 |
| 20260905034533 | 53 | 180 | 1.0 | 4.0 | 0.00 | 0.01 | 0.01 | 75 | 1018.7 |
| 20260905033030 | 56 | 179 | 2.0 | 4.0 | 0.00 | 0.01 | 0.01 | 69 | 1018.4 |
| 20260905031529 | 58 | 12 | 0.0 | 5.0 | 0.00 | 0.01 | 0.01 | 66 | 1018.3 |
| 20260905024530 | 59 | 338 | 3.0 | 7.0 | 0.00 | 0.01 | 0.01 | 64 | 1018.1 |
| 20260905021531 | 61 | 333 | 5.0 | 7.0 | 0.00 | 0.01 | 0.01 | 62 | 1018.0 |
| 20260905020031 | 62 | 337 | 5.0 | 9.0 | 0.00 | 0.01 | 0.01 | 61 | 1017.9 |
| 20260905014532 | 63 | 333 | 4.0 | 10.0 | 0.00 | 0.01 | 0.01 | 60 | 1017.6 |
| 20260905013029 | 63 | 334 | 6.0 | 11.0 | 0.00 | 0.01 | 0.01 | 60 | 1017.4 |
| 20260905011606 | 62 | 313 | 3.0 | 11.0 | 0.00 | 0.01 | 0.01 | 60 | 1017.3 |
| 20260905010030 | 64 | 319 | 4.0 | 9.0 | 0.00 | 0.01 | 0.01 | 56 | 1017.2 |
| 20260905003033 | 66 | 329 | 6.0 | 11.0 | 0.00 | 0.01 | 0.01 | 53 | 1016.9 |
| 20260905001530 | 66 | 318 | 6.0 | 11.0 | 0.00 | 0.01 | 0.01 | 53 | 1016.8 |
| 20260905000145 | 65 | 312 | 4.0 | 9.0 | 0.00 | 0.01 | 0.01 | 54 | 1016.8 |
| 20260904234531 | 65 | 292 | 4.0 | 9.0 | 0.00 | 0.01 | 0.01 | 56 | 1016.8 |
| 20260904233029 | 64 | 271 | 4.0 | 9.0 | 0.00 | 0.01 | 0.01 | 61 | 1016.9 |
| 20260904231532 | 60 | 263 | 5.0 | 11.0 | 0.00 | 0.01 | 0.01 | 67 | 1017.0 |
| 20260904230030 | 59 | 229 | 4.0 | 11.0 | 0.01 | 0.01 | 0.01 | 69 | 1017.2 |
| 20260904221532 | 66 | 338 | 3.0 | 8.0 | 0.01 | 0.01 | 0.00 | 48 | 1016.5 |
| 20260904220031 | 68 | 336 | 4.0 | 12.0 | 0.00 | 0.00 | 0.00 | 46 | 1016.4 |
| 20260904214533 | 69 | 259 | 3.0 | 9.0 | 0.00 | 0.00 | 0.00 | 46 | 1016.4 |
| 20260904213030 | 67 | 342 | 2.0 | 9.0 | 0.00 | 0.00 | 0.00 | 48 | 1016.3 |
| 20260904211533 | 67 | 19 | 4.0 | 8.0 | 0.00 | 0.00 | 0.00 | 48 | 1016.4 |
| 20260904204609 | 67 | 11 | 4.0 | 10.0 | 0.00 | 0.00 | 0.00 | 49 | 1016.5 |
| 20260904201529 | 67 | 360 | 2.0 | 7.0 | 0.00 | 0.00 | 0.00 | 49 | 1016.6 |
| 20260904200029 | 67 | 354 | 3.0 | 6.0 | 0.00 | 0.00 | 0.00 | 49 | 1016.7 |
| 20260904194530 | 68 | 15 | 3.0 | 10.0 | 0.00 | 0.00 | 0.00 | 50 | 1016.7 |
| 20260904193029 | 67 | 29 | 3.0 | 7.0 | 0.00 | 0.00 | 0.00 | 51 | 1016.9 |
| 20260904191530 | 68 | 348 | 4.0 | 9.0 | 0.00 | 0.00 | 0.00 | 51 | 1016.9 |
| 20260904190029 | 68 | 328 | 4.0 | 11.0 | 0.00 | 0.00 | 0.00 | 53 | 1017.0 |
| 20260904184529 | 67 | 349 | 4.0 | 11.0 | 0.00 | 0.00 | 0.00 | 53 | 1017.0 |
| 20260904183031 | 67 | 90 | 3.0 | 8.0 | 0.00 | 0.00 | 0.00 | 55 | 1017.0 |
| 20260904181616 | 65 | 338 | 2.0 | 7.0 | 0.00 | 0.00 | 0.00 | 57 | 1017.0 |
| 20260904180029 | 67 | 307 | 3.0 | 9.0 | 0.00 | 0.00 | 0.00 | 55 | 1017.0 |
| 20260904174530 | 67 | 340 | 4.0 | 9.0 | 0.00 | 0.00 | 0.00 | 56 | 1016.9 |
| 20260904173030 | 67 | 344 | 2.0 | 7.0 | 0.00 | 0.00 | 0.00 | 60 | 1016.9 |
| 20260904171603 | 63 | 312 | 2.0 | 6.0 | 0.00 | 0.00 | 0.00 | 68 | 1016.9 |
| 20260904170039 | 60 | 19 | 1.0 | 5.0 | 0.00 | 0.00 | 0.00 | 71 | 1017.0 |
| 20260904164532 | 60 | 55 | 0.0 | 4.0 | 0.00 | 0.00 | 0.00 | 70 | 1016.9 |
| 20260904161531 | 62 | 19 | 1.0 | 4.0 | 0.00 | 0.00 | 0.00 | 73 | 1016.9 |
| 20260904160032 | 61 | 4 | 1.0 | 4.0 | 0.00 | 0.00 | 0.00 | 79 | 1017.0 |
| 20260904154530 | 56 | 149 | 0.0 | 3.0 | 0.00 | 0.00 | 0.00 | 88 | 1016.9 |
| 20260904153107 | 53 | 164 | 0.0 | 2.0 | 0.00 | 0.00 | 0.00 | 91 | 1016.9 |
| 20260904151528 | 52 | 211 | 0.0 | 2.0 | 0.00 | 0.00 | 0.00 | 93 | 1016.7 |
| 20260904150030 | 51 | 247 | 0.0 | 1.0 | 0.00 | 0.00 | 0.00 | 94 | 1016.6 |
| 20260904143041 | 48 | 202 | 0.0 | 2.0 | 0.00 | 0.00 | 0.00 | 94 | 1016.4 |
| 20260904141606 | 48 | 180 | 0.0 | 0.0 | 0.00 | 0.00 | 0.00 | 94 | 1016.2 |
| 20260904140030 | 48 | 180 | 0.0 | 1.0 | 0.00 | 0.00 | 0.00 | 94 | 1016.1 |
| 20260904134531 | 48 | 180 | 0.0 | 2.0 | 0.00 | 0.00 | 0.00 | 94 | 1015.9 |
| 20260904133031 | 48 | 175 | 1.0 | 3.0 | 0.00 | 0.00 | 0.00 | 93 | 1015.7 |
| 20260904131530 | 47 | 160 | 0.0 | 2.0 | 0.00 | 0.00 | 0.00 | 93 | 1015.5 |
| 20260904130031 | 47 | 180 | 0.0 | 2.0 | 0.00 | 0.00 | 0.00 | 93 | 1015.4 |
| 20260904124530 | 48 | 180 | 0.0 | 0.0 | 0.00 | 0.00 | 0.00 | 92 | 1015.5 |
| 20260904123107 | 48 | 180 | 0.0 | 0.0 | 0.00 | 0.00 | 0.00 | 92 | 1015.5 |
| 20260904121532 | 48 | 180 | 0.0 | 0.0 | 0.00 | 0.00 | 0.00 | 92 | 1015.4 |
| 20260904120029 | 49 | 180 | 0.0 | 0.0 | 0.00 | 0.00 | 0.00 | 92 | 1015.3 |
| 20260904113030 | 49 | 180 | 0.0 | 0.0 | 0.00 | 0.00 | 0.00 | 91 | 1015.0 |
| 20260904111530 | 49 | 180 | 0.0 | 2.0 | 0.00 | 0.00 | 0.00 | 92 | 1015.0 |
| 20260904110029 | 49 | 168 | 2.0 | 4.0 | 0.00 | 0.00 | 0.00 | 92 | 1014.9 |
| 20260904104531 | 49 | 174 | 1.0 | 3.0 | 0.00 | 0.00 | 0.00 | 93 | 1014.8 |
| 20260904103030 | 48 | 178 | 2.0 | 4.0 | 0.00 | 0.00 | 0.00 | 93 | 1014.7 |
| 20260904101607 | 48 | 174 | 3.0 | 5.0 | 0.00 | 0.00 | 0.00 | 93 | 1014.6 |
| 20260904094531 | 47 | 90 | 0.0 | 2.0 | 0.00 | 0.01 | 0.00 | 93 | 1014.4 |
| 20260904093029 | 47 | 154 | 1.0 | 4.0 | 0.00 | 0.01 | 0.00 | 92 | 1014.3 |
| 20260904091530 | 46 | 177 | 1.0 | 3.0 | 0.00 | 0.01 | 0.00 | 92 | 1014.3 |
| 20260904084532 | 48 | 180 | 0.0 | 2.0 | 0.00 | 0.01 | 0.00 | 92 | 1014.3 |
| 20260904083030 | 47 | 179 | 1.0 | 4.0 | 0.00 | 0.01 | 0.00 | 93 | 1014.2 |
| 20260904081540 | 47 | 188 | 1.0 | 4.0 | 0.00 | 0.01 | 0.00 | 93 | 1014.2 |
| 20260904074531 | 47 | 228 | 0.0 | 2.0 | 0.00 | 0.01 | 0.00 | 92 | 1014.2 |
| 20260904073032 | 47 | 179 | 0.0 | 4.0 | 0.00 | 0.01 | 0.00 | 92 | 1014.1 |
| 20260904071529 | 47 | 179 | 2.0 | 5.0 | 0.00 | 0.01 | 0.00 | 92 | 1014.1 |
| 20260904070109 | 47 | 173 | 2.0 | 5.0 | 0.00 | 0.01 | 0.00 | 92 | 1014.0 |
| 20260904064529 | 46 | 174 | 3.0 | 6.0 | 0.00 | 0.01 | 0.01 | 90 | 1014.0 |
| 20260904063032 | 46 | 179 | 2.0 | 4.0 | 0.00 | 0.01 | 0.01 | 90 | 1013.9 |
| 20260904060108 | 48 | 170 | 2.0 | 3.0 | 0.00 | 0.01 | 0.01 | 89 | 1013.7 |
| 20260904054531 | 49 | 182 | 1.0 | 3.0 | 0.00 | 0.01 | 0.01 | 89 | 1013.8 |
| 20260904053032 | 50 | 170 | 2.0 | 4.0 | 0.00 | 0.01 | 0.01 | 89 | 1013.9 |
| 20260904050028 | 50 | 183 | 2.0 | 4.0 | 0.00 | 0.01 | 0.01 | 89 | 1013.9 |
| 20260904044530 | 50 | 252 | 1.0 | 4.0 | 0.00 | 0.01 | 0.01 | 89 | 1013.8 |